FW6992 Weather Reports


Display with metric or nautical units.
time (UTC)temp
F
wind
direction
speed
MPH
gust
MPH
rain 1hr
in
rain 24hr
in
rain mn
in
humidity
%
barometer
mb
20260901201059 97 93 0.0 1.0 0.00 0.00 0.00 41 1019.6
20260901200559 97 220 0.0 1.0 0.00 0.00 0.00 42 1019.3
20260901200054 98 85 0.0 2.0 0.00 0.00 0.00 39 1019.1
20260901195552 98 350 1.0 2.0 0.00 0.00 0.00 39 1019.3
20260901195051 97 216 0.0 2.0 0.00 0.00 0.00 39 1019.4
20260901194552 97 207 0.0 0.0 0.00 0.00 0.00 43 1019.4
20260901194048 97 240 0.0 0.0 0.00 0.00 0.00 44 1019.5
20260901193543 97 201 0.0 1.0 0.00 0.00 0.00 40 1019.5
20260901193038 96 138 0.0 2.0 0.00 0.00 0.00 41 1019.4
20260901192532 97 226 1.0 3.0 0.00 0.00 0.00 41 1019.7
20260901192028 98 251 0.0 1.0 0.00 0.00 0.00 40 1019.7
20260901191524 98 336 0.0 1.0 0.00 0.00 0.00 44 1019.8
20260901191020 96 279 1.0 2.0 0.00 0.00 0.00 45 1019.9
20260901190514 94 290 0.0 2.0 0.00 0.00 0.00 45 1019.9
20260901190014 93 201 0.0 2.0 0.00 0.00 0.00 48 1020.1
20260901185507 94 220 0.0 1.0 0.00 0.00 0.00 49 1020.0
20260901185006 95 270 0.0 0.0 0.00 0.00 0.00 44 1019.9
20260901184502 95 70 0.0 1.0 0.00 0.00 0.00 47 1020.1
20260901183957 96 216 1.0 2.0 0.00 0.00 0.00 42 1020.1
20260901183457 95 279 0.0 1.0 0.00 0.00 0.00 46 1020.2
20260901182952 95 343 0.0 0.0 0.00 0.00 0.00 48 1020.2
20260901182448 95 205 0.0 2.0 0.00 0.00 0.00 45 1020.1
20260901181943 94 106 1.0 2.0 0.00 0.00 0.00 46 1020.0
20260901181443 93 226 0.0 2.0 0.00 0.00 0.00 51 1020.2
20260901180942 93 190 1.0 2.0 0.00 0.00 0.00 50 1020.1
20260901180441 94 145 0.0 2.0 0.00 0.00 0.00 47 1020.1
20260901175939 95 245 0.0 2.0 0.00 0.00 0.00 50 1020.0
20260901175435 94 96 0.0 1.0 0.00 0.00 0.00 48 1020.1
20260901174930 94 96 0.0 2.0 0.00 0.00 0.00 47 1020.1
20260901174425 95 65 0.0 1.0 0.00 0.00 0.00 47 1020.1
20260901173921 95 211 1.0 2.0 0.00 0.00 0.00 46 1020.2
20260901173410 94 211 3.0 4.0 0.00 0.00 0.00 47 1020.4
20260901172906 94 54 0.0 2.0 0.00 0.00 0.00 47 1020.3
20260901172401 94 10 0.0 1.0 0.00 0.00 0.00 47 1020.4
20260901171900 94 18 0.0 1.0 0.00 0.00 0.00 48 1020.1
20260901171358 94 245 0.0 2.0 0.00 0.00 0.00 50 1020.2
20260901170857 93 73 1.0 1.0 0.00 0.00 0.00 47 1020.1
20260901170352 92 284 0.0 2.0 0.00 0.00 0.00 50 1020.2
20260901165852 92 228 3.0 3.0 0.00 0.00 0.00 49 1020.0
20260901165351 91 258 1.0 2.0 0.00 0.00 0.00 54 1020.2
20260901164848 91 151 1.0 2.0 0.00 0.00 0.00 51 1020.4
20260901164344 91 127 0.0 2.0 0.00 0.00 0.00 50 1020.5
20260901163843 91 58 1.0 2.0 0.00 0.00 0.00 51 1020.4
20260901163338 90 97 0.0 1.0 0.00 0.00 0.00 53 1020.5
20260901162828 90 223 0.0 2.0 0.00 0.00 0.00 51 1020.5
20260901162326 90 2 1.0 2.0 0.00 0.00 0.00 54 1020.5
20260901161826 90 260 1.0 1.0 0.00 0.00 0.00 55 1020.7
20260901161321 90 245 0.0 2.0 0.00 0.00 0.00 57 1020.7
20260901160816 90 235 0.0 2.0 0.00 0.00 0.00 59 1020.9
20260901160313 90 156 0.0 2.0 0.00 0.00 0.00 55 1020.9
20260901155811 89 87 0.0 1.0 0.00 0.00 0.00 58 1020.9
20260901155306 90 163 0.0 3.0 0.00 0.00 0.00 53 1020.9
20260901154802 90 14 0.0 0.0 0.00 0.00 0.00 55 1021.1
20260901154256 90 137 1.0 1.0 0.00 0.00 0.00 54 1021.2
20260901153751 91 8 0.0 2.0 0.00 0.00 0.00 58 1020.9
20260901153250 89 215 1.0 2.0 0.00 0.00 0.00 57 1021.1
20260901152749 89 215 1.0 2.0 0.00 0.00 0.00 57 1021.3
20260901152249 89 215 1.0 2.0 0.00 0.00 0.00 57 1021.4
20260901151744 89 215 1.0 2.0 0.00 0.00 0.00 57 1021.3
20260901151244 88 65 0.0 0.0 0.00 0.00 0.00 61 1021.4
20260901150743 87 65 0.0 0.0 0.00 0.00 0.00 64 1021.4
20260901150242 86 245 0.0 0.0 0.00 0.00 0.00 65 1021.7
20260901145740 84 270 0.0 1.0 0.00 0.00 0.00 68 1021.4
20260901145240 83 251 0.0 0.0 0.00 0.00 0.00 74 1021.4
20260901144735 83 36 0.0 0.0 0.00 0.00 0.00 72 1021.8
20260901144230 83 71 0.0 0.0 0.00 0.00 0.00 70 1021.6
20260901143726 83 330 0.0 1.0 0.00 0.00 0.00 72 1021.7
20260901143222 83 290 0.0 1.0 0.00 0.00 0.00 75 1021.3
20260901142718 82 330 0.0 0.0 0.00 0.00 0.00 79 1021.5
20260901142217 82 354 0.0 0.0 0.00 0.00 0.00 77 1021.4
20260901141713 82 251 0.0 0.0 0.00 0.00 0.00 80 1021.3
20260901141207 82 233 0.0 0.0 0.00 0.00 0.00 79 1021.3
20260901140706 82 238 0.0 0.0 0.00 0.00 0.00 80 1021.1
20260901140205 82 238 0.0 0.0 0.00 0.00 0.00 76 1021.5
20260901135700 81 207 0.0 0.0 0.00 0.00 0.00 75 1021.6
20260901135159 81 233 0.0 2.0 0.00 0.00 0.00 75 1021.4
20260901134655 80 226 0.0 0.0 0.00 0.00 0.00 78 1021.5
20260901134150 80 238 0.0 1.0 0.00 0.00 0.00 79 1021.6
20260901133650 80 46 0.0 0.0 0.00 0.00 0.00 82 1021.5
20260901133148 79 238 0.0 0.0 0.00 0.00 0.00 83 1021.6
20260901132643 80 131 0.0 0.0 0.00 0.00 0.00 83 1021.7
20260901132143 80 131 0.0 2.0 0.00 0.00 0.00 85 1021.6
20260901131643 79 318 0.0 0.0 0.00 0.00 0.00 89 1021.6
20260901131137 79 356 0.0 0.0 0.00 0.00 0.00 88 1021.6
20260901130633 79 245 0.0 1.0 0.00 0.00 0.00 87 1021.7
20260901130131 79 89 0.0 1.0 0.00 0.00 0.00 89 1021.7
20260901125629 78 282 0.0 1.0 0.00 0.00 0.00 93 1021.7
20260901125119 77 322 0.0 1.0 0.02 0.00 0.00 95 1021.7
20260901124614 76 318 0.0 0.0 0.00 0.00 0.00 94 1021.9
20260901124108 75 96 0.0 0.0 0.00 0.00 0.00 95 1021.9
20260901123603 74 290 0.0 1.0 0.00 0.00 0.00 95 1022.0
20260901123102 74 314 0.0 0.0 0.00 0.00 0.00 95 1022.0
20260901122601 74 314 0.0 0.0 0.00 0.00 0.00 95 1021.8
20260901122100 73 168 0.0 0.0 0.00 0.00 0.00 95 1021.7
20260901121555 73 181 0.0 0.0 0.00 0.00 0.00 95 1021.7
20260901121051 73 238 0.0 0.0 0.00 0.00 0.00 95 1021.9
20260901120550 73 237 0.0 1.0 0.00 0.00 0.00 95 1021.7
20260901120046 73 277 0.0 0.0 0.00 0.00 0.00 95 1021.6
20260901115541 73 332 0.0 0.0 0.00 0.00 0.00 95 1021.5
20260901115038 73 168 0.0 0.0 0.00 0.00 0.00 95 1021.4
20260901114534 73 147 0.0 0.0 0.00 0.00 0.00 95 1021.6
20260901114032 73 238 0.0 0.0 0.00 0.00 0.00 95 1021.2
20260901113526 72 214 0.0 0.0 0.00 0.00 0.00 95 1021.2
20260901113022 72 259 0.0 1.0 0.00 0.00 0.00 95 1021.2
20260901112521 72 304 0.0 0.0 0.00 0.00 0.00 95 1021.3
20260901112017 72 151 0.0 0.0 0.00 0.00 0.00 95 1021.4
20260901111515 72 27 0.0 0.0 0.00 0.00 0.00 95 1021.3
20260901111014 71 263 0.0 1.0 0.00 0.00 0.00 95 1021.4
20260901110510 71 156 0.0 0.0 0.00 0.00 0.00 95 1021.2
20260901110005 71 267 0.0 0.0 0.00 0.00 0.00 94 1021.0
20260901105502 71 267 0.0 0.0 0.00 0.00 0.00 94 1021.1
20260901105001 71 316 0.0 1.0 0.00 0.00 0.00 94 1021.2
20260901104457 71 110 0.0 0.0 0.00 0.00 0.00 94 1021.1
20260901103951 71 251 0.0 0.0 0.00 0.00 0.00 94 1021.1
20260901103446 71 140 0.0 0.0 0.00 0.00 0.00 94 1021.1
20260901102941 71 343 0.0 0.0 0.00 0.00 0.00 94 1021.1
20260901102436 71 172 0.0 0.0 0.00 0.00 0.00 94 1021.0
20260901101931 71 214 0.0 1.0 0.00 0.00 0.00 94 1020.9
20260901101426 71 145 0.0 0.0 0.00 0.00 0.00 94 1020.9
20260901100926 71 265 1.0 1.0 0.00 0.00 0.00 94 1020.9
20260901100421 71 245 0.0 0.0 0.00 0.00 0.00 94 1020.9
20260901095920 71 226 0.0 1.0 0.00 0.00 0.00 94 1020.9
20260901095419 71 320 0.0 1.0 0.00 0.00 0.00 94 1020.7
20260901094911 71 336 0.0 2.0 0.00 0.00 0.00 94 1020.9
20260901094406 71 251 0.0 2.0 0.00 0.00 0.00 94 1020.7
20260901093901 71 330 0.0 0.0 0.00 0.00 0.00 94 1020.7
20260901093400 71 167 1.0 1.0 0.00 0.00 0.00 94 1020.8
20260901092856 71 163 0.0 0.0 0.00 0.00 0.00 94 1020.8
20260901092351 71 346 0.0 0.0 0.00 0.00 0.00 94 1020.8
20260901091847 71 194 0.0 2.0 0.00 0.00 0.00 94 1020.7
20260901091347 71 290 0.0 0.0 0.00 0.00 0.00 94 1020.9
20260901090842 71 65 0.0 1.0 0.00 0.00 0.00 94 1020.9
20260901090342 71 163 0.0 1.0 0.00 0.00 0.00 94 1020.9
20260901085838 71 239 0.0 0.0 0.00 0.00 0.00 94 1021.0
20260901085333 71 263 0.0 0.0 0.00 0.00 0.00 94 1020.8
20260901084830 72 163 0.0 0.0 0.00 0.00 0.00 94 1020.9
20260901084326 72 163 0.0 1.0 0.00 0.00 0.00 94 1020.9
20260901083821 72 245 0.0 0.0 0.00 0.00 0.00 94 1020.9
20260901083320 72 190 0.0 1.0 0.00 0.00 0.00 94 1021.2
20260901082819 72 212 0.0 0.0 0.00 0.00 0.00 94 1021.1
20260901082314 72 314 0.0 0.0 0.00 0.00 0.00 94 1021.1
20260901081809 72 77 0.0 0.0 0.00 0.00 0.00 94 1021.1
20260901081309 72 168 0.0 0.0 0.00 0.00 0.00 94 1020.9
20260901080804 72 207 0.0 1.0 0.00 0.00 0.00 94 1021.0
20260901080304 72 336 0.0 0.0 0.00 0.00 0.00 94 1021.2
20260901075758 72 330 0.0 0.0 0.00 0.00 0.00 94 1020.9
20260901075253 72 151 0.0 1.0 0.00 0.00 0.00 94 1021.1
20260901074747 72 238 0.0 0.0 0.00 0.00 0.00 94 1021.1
20260901074242 72 238 0.0 0.0 0.00 0.00 0.00 94 1021.2
20260901073739 72 238 0.0 0.0 0.00 0.00 0.00 94 1021.1
20260901073234 72 238 0.0 0.0 0.00 0.00 0.00 94 1021.1
20260901072729 72 238 0.0 0.0 0.00 0.00 0.00 94 1021.1
20260901072225 72 238 0.0 0.0 0.00 0.00 0.00 94 1021.0
20260901071724 72 238 0.0 0.0 0.00 0.00 0.00 94 1021.3
20260901071224 72 238 0.0 0.0 0.00 0.00 0.00 94 1021.3
20260901070718 72 238 0.0 0.0 0.00 0.00 0.00 94 1021.4
20260901070213 73 238 0.0 0.0 0.00 0.00 0.00 94 1021.3
20260901065712 73 238 0.0 0.0 0.00 0.00 0.00 94 1021.3
20260901065208 72 238 0.0 0.0 0.00 0.00 0.00 94 1021.2
20260901064704 73 347 0.0 0.0 0.00 0.00 0.00 94 1021.4
20260901064200 72 347 0.0 0.0 0.00 0.00 0.00 94 1021.4
20260901063657 72 347 0.0 0.0 0.00 0.00 0.00 94 1021.6
20260901063153 73 347 0.0 0.0 0.00 0.00 0.00 94 1021.6
20260901062648 73 347 0.0 0.0 0.00 0.00 0.00 94 1021.7
20260901062144 73 347 0.0 0.0 0.00 0.00 0.00 94 1021.8
20260901061640 73 347 0.0 0.0 0.00 0.00 0.00 94 1021.7
20260901061140 73 347 0.0 0.0 0.00 0.00 0.00 94 1021.8
20260901060640 73 347 0.0 0.0 0.00 0.00 0.00 94 1021.9
20260901060136 73 347 0.0 0.0 0.00 0.00 0.00 94 1021.6
20260901055631 73 347 0.0 0.0 0.00 0.00 0.00 94 1021.9
20260901055128 73 110 0.0 0.0 0.00 0.00 0.00 94 1021.7
20260901054625 73 343 0.0 0.0 0.00 0.00 0.00 94 1022.0
20260901054120 73 343 0.0 0.0 0.00 0.00 0.00 94 1021.8
20260901053616 73 13 0.0 0.0 0.00 0.00 0.00 94 1021.8
20260901053112 73 13 0.0 0.0 0.00 0.00 0.00 94 1021.9
20260901052612 73 13 0.0 0.0 0.00 0.00 0.00 94 1021.8
20260901052107 73 13 0.0 0.0 0.00 0.00 0.00 94 1022.0
20260901051607 73 13 0.0 0.0 0.00 0.00 0.00 94 1021.8
20260901051106 73 13 0.0 0.0 0.00 0.00 0.00 94 1021.9
20260901050601 73 330 0.0 0.0 0.00 0.00 0.00 94 1021.8
20260901050056 73 330 0.0 0.0 0.00 0.00 0.00 94 1022.0
20260901045551 73 330 0.0 0.0 0.00 0.00 0.00 94 1022.2
20260901045046 73 185 0.0 0.0 0.00 0.00 0.00 94 1022.2
20260901044542 73 185 0.0 0.0 0.00 0.00 0.00 94 1022.3
20260901044037 73 318 0.0 0.0 0.00 0.00 0.00 94 1022.2
20260901043533 73 318 0.0 0.0 0.00 0.00 0.00 94 1022.2
20260901043028 73 277 0.0 0.0 0.00 0.00 0.00 94 1022.1
20260901042527 73 163 0.0 0.0 0.00 0.00 0.00 94 1022.1
20260901042023 73 163 0.0 0.0 0.00 0.00 0.00 94 1022.2
20260901041519 73 163 0.0 0.0 0.00 0.00 0.00 94 1022.4
20260901041013 73 163 0.0 0.0 0.00 0.00 0.00 93 1022.1
20260901040508 73 163 0.0 0.0 0.00 0.00 0.00 94 1022.4
20260901040007 73 140 0.0 0.0 0.00 0.14 0.14 94 1022.4
20260901035505 73 163 0.0 0.0 0.00 0.14 0.14 93 1022.3
20260901034959 73 251 0.0 0.0 0.00 0.14 0.14 93 1022.4
20260901034459 73 251 0.0 0.0 0.00 0.14 0.14 93 1022.3
20260901033954 73 251 0.0 0.0 0.00 0.14 0.14 93 1022.5
20260901033452 73 251 0.0 0.0 0.00 0.14 0.14 93 1022.5
20260901032951 73 251 0.0 0.0 0.00 0.14 0.14 93 1022.3
20260901032445 73 233 0.0 0.0 0.00 0.14 0.14 93 1022.3
20260901031941 73 233 0.0 0.0 0.00 0.14 0.14 93 1022.4
20260901031436 73 233 0.0 0.0 0.00 0.14 0.14 93 1022.3
20260901030930 73 330 0.0 0.0 0.00 0.14 0.14 93 1022.5
20260901030426 73 330 0.0 0.0 0.00 0.14 0.14 93 1022.5
20260901025925 73 290 0.0 0.0 0.00 0.14 0.14 93 1022.7
20260901025420 73 251 0.0 0.0 0.00 0.14 0.14 93 1022.7
20260901024920 73 251 0.0 0.0 0.00 0.14 0.14 93 1022.7
20260901024419 73 251 0.0 0.0 0.00 0.14 0.14 93 1022.4
20260901023918 74 239 0.0 0.0 0.00 0.14 0.14 93 1022.8
20260901023413 74 239 0.0 0.0 0.00 0.14 0.14 93 1022.4
20260901022908 74 239 0.0 0.0 0.00 0.14 0.14 93 1022.7
20260901022404 74 239 0.0 0.0 0.00 0.14 0.14 93 1022.5
20260901021859 74 239 0.0 0.0 0.02 0.14 0.14 93 1022.5
20260901021354 74 239 0.0 0.0 0.02 0.14 0.14 93 1022.4
20260901020849 74 330 0.0 0.0 0.00 0.14 0.14 93 1022.3
20260901020345 74 330 0.0 0.0 0.00 0.14 0.14 93 1022.2
20260901015844 74 330 0.0 0.0 0.00 0.14 0.14 93 1022.2
20260901015341 74 330 0.0 0.0 0.00 0.14 0.14 93 1022.3
20260901014839 74 330 0.0 0.0 0.00 0.14 0.14 93 1022.2
20260901014336 74 330 0.0 0.0 0.00 0.14 0.14 93 1022.1
20260901013826 74 330 0.0 0.0 0.00 0.14 0.14 92 1021.9
20260901013321 74 330 0.0 0.0 0.00 0.14 0.14 92 1021.9
20260901012816 74 330 0.0 0.0 0.00 0.14 0.14 92 1021.9
20260901012311 74 277 0.0 0.0 0.00 0.14 0.14 92 1022.0
20260901011808 74 175 0.0 0.0 0.00 0.14 0.14 92 1022.0
20260901011302 74 277 0.0 0.0 0.00 0.14 0.14 92 1021.9
20260901010755 74 150 0.0 0.0 0.00 0.14 0.14 92 1022.0
20260901010250 74 145 0.0 0.0 0.00 0.14 0.14 92 1021.9
20260901005748 74 226 0.0 0.0 0.00 0.14 0.14 92 1021.8
20260901005244 74 226 0.0 0.0 0.00 0.14 0.14 92 1021.8
20260901004738 75 175 0.0 0.0 0.00 0.14 0.14 92 1021.3
20260901004233 75 175 0.0 0.0 0.00 0.14 0.14 92 1021.5
20260901003733 76 6 0.0 0.0 0.00 0.14 0.14 92 1021.5
20260901003233 76 6 0.0 0.0 0.00 0.14 0.14 92 1021.6
20260901002726 76 6 0.0 0.0 0.00 0.14 0.14 92 1021.6
20260901002221 76 6 0.0 0.0 0.00 0.14 0.14 92 1021.6
20260901001717 76 6 0.0 0.0 0.00 0.14 0.14 92 1021.5
20260901001213 76 6 0.0 0.0 0.00 0.14 0.14 92 1021.5
20260901000708 76 6 0.0 0.0 0.00 0.14 0.14 92 1021.5
20260901000203 76 6 0.0 0.0 0.00 0.14 0.14 92 1021.3
20260831235701 76 6 0.0 0.0 0.00 0.14 0.14 92 1021.4
20260831235157 76 238 0.0 0.0 0.00 0.14 0.14 91 1021.5
20260831234656 76 238 0.0 0.0 0.00 0.14 0.14 91 1021.5
20260831234152 76 238 0.0 0.0 0.00 0.14 0.14 91 1021.6
20260831233647 76 238 0.0 0.0 0.00 0.14 0.14 91 1021.6
20260831233143 76 238 0.0 0.0 0.40 0.14 0.14 91 1021.8
20260831232637 76 238 0.0 0.0 0.40 0.14 0.14 91 1022.0
20260831232134 76 46 0.0 0.0 0.00 0.07 0.07 91 1021.8
20260831231630 76 263 0.0 0.0 0.00 0.07 0.07 91 1021.8
20260831231126 76 251 0.0 0.0 0.00 0.07 0.07 91 1021.9
20260831230621 76 226 0.0 0.0 0.00 0.07 0.07 90 1021.9
20260831230121 76 251 0.0 0.0 0.00 0.07 0.07 90 1022.1
20260831225610 76 110 0.0 2.0 0.00 0.07 0.07 89 1021.9
20260831225110 76 110 2.0 2.0 0.00 0.07 0.07 88 1022.2
20260831224605 77 297 1.0 2.0 0.21 0.07 0.07 87 1022.1
20260831224101 77 189 0.0 2.0 0.31 0.07 0.07 85 1022.1
20260831223556 78 201 0.0 1.0 0.19 0.04 0.04 84 1022.2
20260831223052 79 105 0.0 1.0 0.05 0.01 0.01 82 1022.4
20260831222548 80 125 0.0 2.0 0.02 0.00 0.00 80 1022.3
20260831222048 81 123 1.0 1.0 0.02 0.00 0.00 76 1022.2
20260831221539 82 160 1.0 1.0 0.00 0.00 0.00 72 1022.3
20260831221039 83 127 0.0 2.0 0.00 0.00 0.00 66 1022.2
20260831220533 85 102 3.0 4.0 0.00 0.00 0.00 64 1022.3
20260831220029 86 267 2.0 4.0 0.00 0.00 0.00 60 1022.2
20260831215525 87 305 0.0 0.0 0.00 0.00 0.00 56 1021.7
20260831215020 87 238 0.0 0.0 0.00 0.00 0.00 57 1021.9
20260831214518 86 290 0.0 0.0 0.00 0.00 0.00 58 1021.9
20260831214013 86 290 0.0 0.0 0.00 0.00 0.00 58 1021.7
20260831213510 86 238 0.0 0.0 0.00 0.00 0.00 62 1021.8
20260831213005 86 238 0.0 0.0 0.00 0.00 0.00 63 1021.6
20260831212501 86 238 0.0 0.0 0.00 0.00 0.00 61 1021.7
20260831212000 86 238 0.0 0.0 0.00 0.00 0.00 60 1021.6
20260831211455 86 223 0.0 0.0 0.00 0.00 0.00 60 1021.6
20260831210954 86 110 0.0 0.0 0.00 0.00 0.00 58 1021.5
20260831210450 86 4 0.0 0.0 0.00 0.00 0.00 58 1021.5
20260831205945 86 251 0.0 0.0 0.00 0.00 0.00 60 1021.6
20260831205441 86 251 0.0 0.0 0.00 0.00 0.00 59 1021.9
20260831204936 86 251 0.0 0.0 0.00 0.00 0.00 58 1021.6
20260831204436 86 251 0.0 0.0 0.00 0.00 0.00 59 1021.5
20260831203935 86 251 0.0 0.0 0.00 0.00 0.00 58 1021.6
20260831203430 86 251 0.0 0.0 0.00 0.00 0.00 58 1021.4
20260831202928 86 124 0.0 0.0 0.00 0.00 0.00 55 1021.8
20260831202423 87 124 0.0 0.0 0.00 0.00 0.00 55 1021.6
20260831201918 87 151 0.0 0.0 0.00 0.00 0.00 53 1021.7
20260831201416 87 194 0.0 0.0 0.00 0.00 0.00 56 1021.6